This demonstration page uses our WeatherBlox Daily Observations layout. Learn more.

Left ArrowRight Arrow

39.51506, -84.39828

Hourly Observations for June 25, 2015

Temp ( °F °C ) Dew Point ( °F °C ) Humidity (%) Winds ( mph kmh ) Pressure ( in mb ) Visibility ( mi km ) Precip ( " mm )
12:15 am 00:15 Clear 69 20.4 64 17.8 85 85 N N/A 30.09 1019 10 16 N/A
12:35 am 00:35 Clear 68 20 63 17.4 85 85 N N/A 30.09 1019 10 16 N/A
12:55 am 00:55 Clear 67 19.5 62 16.8 84 84 N N/A 30.09 1019 10 16 N/A
1:15 am 01:15 Clear 67 19.5 63 17 86 86 N N/A 30.09 1019 10 16 N/A
1:35 am 01:35 Clear 67 19.4 62 16.9 86 86 N N/A 30.06 1018 10 16 N/A
1:55 am 01:55 Clear 67 19.5 63 17 86 86 N N/A 30.06 1018 10 16 N/A
2:15 am 02:15 Partly Cloudy 67 19.5 62 16.9 85 85 N N/A 30.06 1018 10 16 N/A
2:35 am 02:35 Clear 67 19.4 62 16.7 84 84 NNE 3 6 30.06 1018 10 16 N/A
2:55 am 02:55 Clear 64 18 60 15.5 85 85 N N/A 30.06 1018 10 16 N/A
3:15 am 03:15 Clear 64 18 60 15.7 87 87 N N/A 30.06 1018 10 16 N/A
3:35 am 03:35 Partly Cloudy 64 18 60 15.7 87 87 N N/A 30.06 1018 10 16 N/A
3:55 am 03:55 Partly Cloudy 64 18 60 15.5 85 85 N N/A 30.03 1017 10 16 N/A
4:15 am 04:15 Clear 64 18 60 15.5 85 85 N N/A 30.03 1017 10 16 N/A
4:35 am 04:35 Clear 64 18 60 15.7 87 87 N N/A 30.03 1017 10 16 N/A
4:55 am 04:55 Partly Cloudy 64 18 60 15.8 87 87 N N/A 30.03 1017 10 16 N/A
5:15 am 05:15 Mostly Cloudy 64 17.9 60 15.8 88 88 N N/A 30.03 1017 10 16 N/A
5:35 am 05:35 Cloudy 64 18 61 16 88 88 N N/A 30.03 1017 10 16 N/A
5:55 am 05:55 Mostly Cloudy 64 18 61 16 88 88 N N/A 30.03 1017 10 16 N/A
6:15 am 06:15 Mostly Cloudy 64 18 60 15.8 87 87 N N/A 30.03 1017 10 16 N/A
6:35 am 06:35 Cloudy 67 19.5 63 17.2 87 87 NNW 3 6 30.06 1018 10 16 N/A
6:55 am 06:55 Mostly Cloudy 67 19.5 63 17.1 86 86 N N/A 30.03 1017 10 16 N/A
7:15 am 07:15 Mostly Cloudy with Light Rain 69 20.8 65 18.5 87 87 N N/A 30.03 1017 10 16 N/A
7:35 am 07:35 Mostly Cloudy with Light Rain 69 20.8 65 18.2 85 85 N N/A 30.06 1018 10 16 N/A
7:55 am 07:55 Partly Cloudy with Light Rain 69 20.8 64 17.6 82 82 N N/A 30.06 1018 10 16 N/A
8:15 am 08:15 Mostly Cloudy with Rain 69 20.8 64 18 84 84 NNW 6 9 30.09 1019 10 16 N/A
8:35 am 08:35 Cloudy with Rain 69 20.8 65 18.2 85 85 W 6 9 30.12 1020 7 11 N/A
8:55 am 08:55 Cloudy with Heavy Rain 69 20.5 64 17.9 85 85 N N/A 30.12 1020 4 6 N/A
9:15 am 09:15 Cloudy with Rain 68 19.8 64 17.6 87 87 N N/A 30.12 1020 3 5 N/A
9:35 am 09:35 Cloudy with Heavy Rain 67 19.5 63 17.3 87 87 N N/A 30.12 1020 2 3 N/A
9:55 am 09:55 Cloudy with Heavy Rain 67 19.5 64 17.5 88 88 SE 7 11 30.09 1019 3 4 N/A
10:15 am 10:15 Cloudy with Heavy Rain 67 19.5 64 17.5 88 88 SSE 5 7 30.12 1020 3 5 N/A
10:35 am 10:35 Cloudy with Light Rain 67 19.5 63 17.4 88 88 SSE 3 6 30.06 1018 5 8 N/A
10:55 am 10:55 Cloudy with Light Rain 69 20.8 65 18.3 86 86 WSW 3 6 30.06 1018 7 11 N/A
11:15 am 11:15 Mostly Cloudy with Light Rain 69 20.8 65 18.3 86 86 SSE 3 6 30.03 1017 10 16 N/A
11:35 am 11:35 Partly Cloudy 69 20.8 65 18.1 85 85 S 8 13 30.03 1017 10 16 N/A
11:55 am 11:55 Mostly Cloudy with Light Rain 69 20.8 64 18 84 84 SSW 8 13 30.03 1017 10 16 N/A
12:15 pm 12:15 Cloudy with Light Rain 69 20.8 64 17.7 83 83 SSW 10 17 30.03 1017 10 16 N/A
12:35 pm 12:35 Cloudy 71 21.9 65 18.1 79 79 S 9 15 30.03 1017 10 16 N/A
1:15 pm 13:15 Partly Cloudy 74 23.6 64 17.8 70 70 S 12 19 30.00 1016 10 16 N/A
1:35 pm 13:35 Partly Cloudy 74 23.6 63 17.3 68 68 SSW 10 17 30.00 1016 10 16 N/A
2:15 pm 14:15 undefined N/A N/A N/A undefined N/A N/A N/A N/A
2:35 pm 14:35 undefined 77 25.1 64 17.5 63 63 SSW 9 15 29.97 1015 10 16 N/A
2:55 pm 14:55 Sunny 80 26.5 65 18.4 61 61 SSW 10 17 29.97 1015 10 16 N/A
3:15 pm 15:15 Sunny 80 26.5 64 18 60 60 SW 8 13 29.97 1015 10 16 N/A
3:35 pm 15:35 Sunny 80 26.6 65 18.3 60 60 SW 9 15 29.97 1015 10 16 N/A
3:55 pm 15:55 Sunny 81 27.2 65 18.2 58 58 SW 7 11 29.97 1015 10 16 N/A
4:15 pm 16:15 Sunny 82 28 65 18.2 55 55 SW 8 13 29.94 1014 10 16 N/A
4:35 pm 16:35 Partly Cloudy 82 28 65 18.4 56 56 WNW 6 9 29.94 1014 10 16 N/A
4:55 pm 16:55 Mostly Cloudy 82 28 64 17.9 54 54 WNW 7 11 29.91 1013 10 16 N/A
5:15 pm 17:15 Mostly Cloudy 82 27.8 64 18 55 55 W 6 9 29.91 1013 10 16 N/A
5:35 pm 17:35 Partly Cloudy 82 28 65 18.6 57 57 WSW 7 11 29.91 1013 10 16 N/A
5:55 pm 17:55 Partly Cloudy 82 28 65 18.3 56 56 WNW 6 9 29.91 1013 10 16 N/A
6:15 pm 18:15 Partly Cloudy 82 28 65 18.2 55 55 W 6 9 29.91 1013 10 16 N/A
6:35 pm 18:35 Partly Cloudy 81 27.4 65 18.6 59 59 SW 5 7 29.94 1014 10 16 N/A
6:55 pm 18:55 Mostly Cloudy 81 27.2 67 19.2 62 62 W 6 9 29.94 1014 10 16 N/A
7:15 pm 19:15 Mostly Cloudy 81 27.2 67 19.5 63 63 N N/A 29.94 1014 10 16 N/A
7:35 pm 19:35 Cloudy 81 27 68 20 66 66 W 3 6 29.94 1014 10 16 N/A
7:55 pm 19:55 Mostly Cloudy 80 26.5 67 19.6 66 66 W 6 9 29.94 1014 10 16 N/A
8:15 pm 20:15 Cloudy 80 26.5 68 20 68 68 N N/A 29.94 1014 10 16 N/A
8:35 pm 20:35 Mostly Cloudy 80 26.5 67 19.7 66 66 N N/A 29.91 1013 10 16 N/A
8:55 pm 20:55 Partly Cloudy 78 25.7 67 19.7 70 70 N N/A 29.91 1013 10 16 N/A
9:15 pm 21:15 Clear 74 23.6 69 20.6 83 83 N N/A 29.94 1014 10 16 N/A
9:35 pm 21:35 Clear 74 23.6 70 21 85 85 N N/A 29.94 1014 10 16 N/A
9:55 pm 21:55 Clear 74 23.6 70 21.3 87 87 N N/A 29.94 1014 10 16 N/A
10:15 pm 22:15 Partly Cloudy 74 23.6 70 21.3 87 87 N N/A 29.94 1014 10 16 N/A
10:35 pm 22:35 Partly Cloudy 74 23.6 70 21.3 87 87 N N/A 29.94 1014 10 16 N/A
10:55 pm 22:55 Clear 72 22.3 68 20.2 88 88 N N/A 29.94 1014 10 16 N/A
11:15 pm 23:15 Mostly Cloudy 71 21.7 67 19.6 88 88 NNE 5 7 29.94 1014 10 16 N/A
11:35 pm 23:35 Partly Cloudy 73 22.6 69 20.8 90 90 ENE 3 6 29.94 1014 10 16 N/A
11:55 pm 23:55 Partly Cloudy 73 22.8 69 20.7 88 88 N N/A 29.94 1014 7 11 N/A

Powered by AerisWeather